Location: Wells
(51.2093°N, 2.6446°W)
Time: 06:53:15
(UTC+01:00)

PCSat - Pass Details

Date: 11 March 2026
Orbit: 780 x 790 km, 67.1° (Epoch: 13 April)

Event Time Altitude Azimuth Distance (km) Brightness Sun altitude
Exits shadow 02:38:24 20° 344° (NNW) 1,778 11.6 -34.5°
Drops below altitude 10° 02:41:56 10° 25° (NNE) 2,365 12.8 -34.1°
Sets 02:45:02 0° 42° (NE) 3,297 13.9 -33.8°
